Home   Weather   Sørumsand   Past weeks

Flag for Norway Past Weather in Sørumsand, Norway — Yesterday and Last 2 Weeks

Now
23 °F

Clear.


Feels Like: 18 °F
Forecast: 25 / 33 °F
Wind: 3 mph from North

Location: Oslo Gardermoen Airport

Current Time: Dec 6, 2016 at 9:20:04 am

Latest Report: Dec 6, 2016 at 8:50 am


Visibility: 10 mi

Pressure: 30.33 "Hg

Humidity: 86%

Dew Point: 19 °F

Location of SørumsandLocation

Past Weather in Sørumsand — Graph

°F

Sørumsand Temperature Yesterday

Maximum temperature yesterday: 46 °F (at 5:50 am)
Minimum temperature yesterday: 25 °F (at 7:50 pm)
Average temperature yesterday: 37 °F

High & Low Weather Summary for the Past Weeks

 TemperatureHumidityPressure
High48 °F (Nov 25, 5:50 pm)100% (Nov 21, 9:20 am)30.39 "Hg (Nov 21, 9:20 am)
Low18 °F (Dec 4, 12:50 am)36% (Nov 26, 2:20 pm)29.42 "Hg (Nov 21, 7:20 am)
Average33 °F72%29.94 "Hg
* Reported Nov 21 7:20 am — Dec 6 7:50 am, Sørumsand, Weather by CustomWeather, © 2016

Note: Actual official high and low records may vary slightly from our data, if they occured in-between our weather recording intervals... More about our weather records

Advertising

Sørumsand Weather History for the Previous 24 Hours

Scroll right to see more
 ConditionsComfort  
Time TempWeatherWind HumidityBarometerVisibility
7:50 am
Tue, Dec 6
23 °FClear.2 mph86%30.33 "Hg10 mi
7:20 am23 °FClear.5 mph86%30.30 "Hg10 mi
6:50 am21 °FClear.2 mph86%30.30 "Hg10 mi
6:20 am21 °FClear.2 mph86%30.30 "Hg10 mi
5:50 am21 °FClear.2 mph86%30.30 "Hg10 mi
5:20 am21 °FClear.2 mph80%30.27 "Hg10 mi
4:50 am19 °FClear.No wind86%30.27 "Hg10 mi
4:20 am19 °FClear.2 mph86%30.27 "Hg10 mi
3:50 am21 °FClear.1 mph80%30.27 "Hg10 mi
3:20 am21 °FClear.No wind86%30.27 "Hg10 mi
2:50 am23 °FPassing clouds.3 mph80%30.24 "HgN/A
2:20 am23 °FClear.2 mph80%30.24 "Hg10 mi
1:50 am25 °FPassing clouds.3 mph80%30.21 "HgN/A
1:20 am27 °FClear.6 mph80%30.21 "Hg10 mi
12:50 am28 °FClear.5 mph80%30.21 "Hg10 mi
12:20 am27 °FPassing clouds.6 mph80%30.18 "HgN/A
11:50 pm
Mon, Dec 5
27 °FPassing clouds.3 mph74%30.18 "HgN/A
11:20 pm28 °FPassing clouds.3 mph80%30.18 "HgN/A
10:50 pm27 °FPassing clouds.3 mph74%30.18 "HgN/A
10:20 pm30 °FClear.2 mph75%30.18 "Hg10 mi
9:50 pm30 °FClear.2 mph75%30.15 "Hg10 mi
9:20 pm30 °FClear.1 mph75%30.15 "Hg10 mi
8:50 pm30 °FClear.2 mph80%30.15 "Hg10 mi
8:20 pm30 °FClear.7 mph80%30.12 "Hg10 mi
7:50 pm25 °FClear.7 mph86%30.12 "Hg10 mi
7:20 pm28 °FClear.3 mph86%30.09 "Hg10 mi
6:50 pm30 °FClear.No wind86%30.09 "Hg10 mi
6:20 pm30 °FPassing clouds.3 mph86%30.09 "HgN/A
5:50 pm32 °FClear.No wind80%30.07 "Hg10 mi
5:20 pm32 °FClear.1 mph80%30.07 "Hg10 mi
4:50 pm36 °FClear.No wind75%30.04 "Hg10 mi
4:20 pm34 °FClear.1 mph75%30.04 "Hg10 mi
3:50 pm36 °FPassing clouds.3 mph70%30.01 "HgN/A
3:20 pm39 °FPassing clouds.7 mph65%30.01 "HgN/A
2:50 pm36 °FSunny.7 mph70%30.01 "Hg10 mi
2:20 pm39 °FSunny.3 mph61%29.98 "Hg10 mi
1:50 pm43 °FPassing clouds.7 mph53%29.98 "HgN/A
1:20 pm41 °FPassing clouds.9 mph61%29.95 "HgN/A
12:50 pm45 °FPassing clouds.6 mph49%29.95 "HgN/A
12:20 pm43 °FSunny.No wind53%29.95 "Hg10 mi
11:50 am45 °FSunny.3 mph49%29.95 "Hg10 mi
11:20 am45 °FPassing clouds.5 mph49%29.92 "HgN/A
10:50 am43 °FPassing clouds.6 mph53%29.92 "HgN/A
10:20 am43 °FPassing clouds.5 mph53%29.92 "HgN/A
9:50 am43 °FPassing clouds.3 mph53%29.92 "HgN/A
9:20 am41 °FPassing clouds.3 mph57%29.89 "HgN/A
Weather by CustomWeather, © 2016

See weather overviewHow to use our weather pages